EHI
0 0 0 0 0 0 0 0 1 2 3 3 3 3 3 2 0 0 1 3 7 13 18 25 32 35 38 45 52 54 51 48 47 47 46 43 37 33 31 28 24 20 17 14 11 8 6 4 3
0 0 0 0 0 0 0 0 1 2 2 2 3 4 4 2 0 0 1 4 11 18 21 26 36 40 41 46 52 53 51 48 46 45 44 40 34 30 27 24 21 18 15 13 10 9 8 6 5
0 0 0 0 0 0 0 0 0 1 2 2 4 5 4 2 0 0 1 5 14 21 21 28 42 48 47 49 52 52 51 50 46 43 40 35 29 24 22 20 17 15 14 13 11 10 9 8 7
0 0 0 0 0 0 0 0 1 1 2 3 3 4 3 1 0 0 3 9 18 22 20 29 46 54 54 54 54 53 53 51 46 40 35 31 26 22 20 17 13 12 13 13 12 10 10 9 8
0 0 0 0 0 1 1 1 2 3 3 3 3 4 3 2 2 3 6 14 21 23 22 31 48 57 59 59 57 55 54 52 47 40 34 29 26 24 20 16 11 10 11 12 11 10 9 9 8
0 0 0 0 1 2 2 2 3 3 3 3 5 5 4 4 6 7 9 14 21 25 26 31 44 53 57 60 60 56 54 52 48 41 34 29 27 26 23 17 12 10 9 8 8 8 8 6 5
0 0 0 0 1 2 2 2 2 4 4 4 6 7 7 8 12 14 15 17 22 26 27 30 37 42 46 52 55 55 52 49 45 39 33 28 26 25 24 20 15 12 9 6 5 5 5 4 3
0 0 0 0 1 1 1 1 2 4 5 6 9 10 10 15 23 27 25 24 25 26 25 28 30 31 32 37 44 46 45 42 39 35 30 26 23 22 22 20 17 15 11 7 5 5 5 4 3
0 0 0 0 0 0 0 1 2 4 6 9 12 14 18 26 35 38 35 31 29 27 25 25 27 26 25 27 32 34 35 34 33 30 27 23 19 17 17 16 15 15 13 10 8 7 7 6 6
0 0 0 0 0 0 1 2 3 4 7 9 13 18 26 34 39 39 37 35 31 28 25 23 24 25 25 25 25 27 28 28 27 25 23 20 16 13 13 12 12 12 13 13 10 8 7 8 8
0 0 0 0 0 0 1 2 3 4 5 6 11 21 30 34 34 32 32 32 32 30 26 23 23 25 26 25 25 25 26 26 24 22 21 19 15 12 10 9 9 9 11 11 10 9 8 8 8
0 0 0 0 0 0 0 1 2 3 2 3 11 23 31 31 27 24 24 27 30 31 29 26 26 27 26 26 25 25 26 25 23 21 21 20 17 13 9 6 6 5 5 7 7 8 8 8 6
0 0 0 0 0 0 1 1 1 2 3 5 11 20 28 27 23 19 19 23 26 29 29 28 28 27 25 23 22 23 24 23 21 20 21 20 18 13 8 5 3 2 2 2 3 3 4 4 4
0 0 0 0 0 1 2 1 1 3 6 8 11 15 21 23 20 18 19 21 23 24 25 25 25 24 22 21 20 20 22 22 21 20 20 19 16 12 8 5 2 1 0 0 0 1 1 1 1
0 0 0 0 0 0 1 0 0 3 6 9 10 11 15 18 19 20 22 24 22 21 20 20 20 20 19 19 19 18 20 20 19 19 19 18 14 10 5 3 2 1 0 0 0 0 0 0 0
0 0 0 0 0 0 0 0 0 2 5 8 9 9 11 14 15 17 22 25 23 20 19 18 17 16 15 16 17 18 17 17 15 15 15 14 11 6 2 1 1 1 0 0 0 0 0 0 0
0 0 0 0 0 0 0 0 0 1 4 7 8 9 10 11 10 11 16 20 22 21 20 19 18 14 11 12 14 14 13 11 10 10 10 8 7 4 1 0 0 0 0 0 0 0 0 0 0
0 0 0 0 0 1 0 0 1 2 4 7 8 8 9 9 8 8 10 15 19 20 19 18 17 14 11 11 11 11 9 6 4 5 5 4 2 1 0 0 0 0 1 1 0 0 0 1 1
0 0 0 0 0 0 0 0 1 3 5 7 7 7 7 7 6 6 8 11 15 17 16 15 15 15 14 14 12 10 8 4 2 1 2 1 1 1 1 1 1 1 1 1 1 0 0 0 0
0 0 0 0 0 0 1 1 1 2 5 5 4 4 4 3 3 3 4 6 9 12 14 14 14 15 16 15 13 11 8 5 2 0 1 2 2 2 2 2 2 2 1 1 1 1 0 0 0
0 0 0 0 0 0 1 1 0 1 3 3 2 2 1 1 1 1 1 2 4 8 11 12 13 14 14 13 11 10 8 4 1 0 1 2 3 3 3 3 2 1 0 0 0 0 0 0 0
0 0 0 0 0 0 1 1 0 0 1 2 2 1 0 0 0 0 0 0 1 3 7 9 10 10 10 10 9 9 8 5 1 0 1 2 2 2 3 3 2 0 0 0 0 0 0 0 0
0 0 0 0 0 0 0 0 0 0 0 1 2 1 0 0 0 0 1 1 0 1 4 6 7 7 7 7 7 9 9 5 2 1 0 1 1 1 2 3 2 1 0 0 0 0 0 0 0
0 0 0 0 0 0 0 0 0 0 0 0 1 1 0 0 0 1 2 2 1 1 2 5 6 6 6 5 5 7 7 5 3 1 0 0 0 0 1 2 3 2 1 1 0 0 0 0 0
0 0 0 0 0 0 0 0 0 0 0 0 0 0 0 0 0 1 2 2 1 1 1 2 5 5 4 3 3 4 4 4 3 1 0 0 0 0 0 1 3 3 3 2 1 0 0 0 0
0 0 0 0 0 0 0 0 0 0 0 0 0 0 0 0 0 0 1 2 2 1 1 1 3 4 3 3 3 3 3 3 4 3 1 1 1 1 0 1 2 3 3 2 1 0 0 0 0
0 0 0 0 0 0 0 0 0 0 0 0 0 0 0 0 0 0 1 2 2 1 1 1 2 3 3 3 3 3 3 4 4 4 2 1 2 1 1 1 2 2 2 1 0 0 0 0 0
0 0 0 0 0 0 0 0 0 0 0 0 0 0 0 0 0 0 0 1 1 0 0 1 1 3 3 3 3 3 3 3 3 2 1 1 1 1 1 2 1 1 1 0 0 0 0 0 0
0 0 0 0 0 0 0 0 0 0 0 0 0 0 0 0 0 0 0 0 0 0 0 0 1 2 3 3 3 3 2 1 1 1 0 0 0 0 1 2 2 1 0 0 0 0 0 0 0
0 0 0 0 0 0 0 0 0 0 0 0 0 0 0 0 0 0 0 0 0 0 0 0 0 1 3 3 3 3 1 0 0 0 0 0 0 0 0 1 2 1 0 0 0 0 0 0 0
Wind_Speed
4 3 2 2 4 4 2 4 3 3 3 2 1 3 4 3 3 2 1 8 10 10 10 12 14 14 14 14 14 14 14 14 13 13 13 13 13 13 12 12 11 10 10 9 9 8 8 7 6
3 2 3 4 5 2 4 3 3 3 2 1 2 3 3 2 2 3 3 6 11 11 9 10 15 14 14 13 13 13 13 13 13 12 12 12 12 11 11 11 11 10 9 9 8 8 7 7 6
3 2 4 4 3 3 4 3 2 3 3 1 1 3 2 1 2 4 4 10 10 9 7 10 15 13 13 13 12 12 12 12 11 11 11 11 11 10 10 10 10 9 9 8 8 7 7 6 6
3 3 5 4 1 4 4 4 2 3 3 2 2 2 1 2 3 4 9 11 10 8 7 9 14 13 12 12 12 11 11 11 11 10 10 10 10 9 9 9 9 8 8 8 8 7 7 7 6
4 4 4 2 3 4 4 4 2 2 1 1 2 2 1 3 6 9 10 10 10 8 6 7 12 12 12 12 11 11 10 10 10 9 9 8 8 8 8 8 8 8 8 8 8 8 7 7 7
4 5 4 1 4 4 4 3 1 1 1 1 2 2 1 2 6 8 8 8 8 8 6 5 11 12 11 11 10 10 9 9 8 8 8 7 7 7 7 7 8 7 7 7 7 7 7 7 7
4 4 3 2 3 4 3 2 1 1 1 2 3 3 0 2 5 7 7 7 6 6 5 4 5 7 9 9 9 9 8 8 7 7 7 7 6 6 7 7 7 7 7 8 8 7 7 7 7
4 4 1 1 2 4 3 3 2 1 2 0 3 4 3 3 7 8 8 6 6 5 4 4 3 3 3 4 8 8 8 7 7 6 6 6 6 6 6 6 6 7 8 8 8 7 8 7 8
4 5 1 4 4 4 2 2 3 1 1 2 1 1 3 10 10 9 7 5 4 4 3 3 3 2 3 3 5 6 6 5 5 5 6 5 2 2 2 4 5 6 8 8 8 7 7 7 7
4 2 5 4 4 3 2 2 2 1 1 1 2 4 8 11 10 9 8 7 6 6 4 3 3 3 3 3 2 1 2 2 2 1 2 1 1 2 2 3 5 6 7 7 7 6 6 5 3
4 5 4 4 4 2 2 2 1 1 1 2 3 5 9 9 7 7 6 6 6 5 4 4 3 3 3 2 2 1 1 1 1 1 1 1 1 1 1 1 2 3 4 3 3 3 2 2 2
3 5 4 4 2 1 2 1 1 1 3 1 4 7 8 9 8 7 7 5 4 4 4 3 4 4 3 2 2 2 1 1 1 1 1 1 1 1 1 1 1 1 1 1 1 1 2 3 3
3 4 3 4 2 2 2 1 0 2 3 2 6 8 8 8 6 4 3 3 3 4 4 4 4 4 3 2 1 2 2 2 2 2 2 2 2 2 2 1 1 2 1 1 2 2 2 3 3
3 3 4 3 1 0 2 0 1 3 1 4 6 6 5 5 4 3 3 2 3 3 4 4 4 4 3 3 2 2 2 1 1 1 2 2 2 2 2 2 1 1 1 1 2 2 2 2 2
1 2 5 2 1 0 3 4 1 2 2 5 5 4 4 3 3 2 3 3 3 4 3 4 4 4 4 3 2 1 1 1 1 1 1 2 2 2 2 1 1 2 1 1 1 2 1 2 2
3 3 3 5 2 2 4 1 4 3 4 5 4 4 4 3 2 2 1 1 1 1 2 2 3 3 3 2 1 1 1 1 1 1 1 2 2 2 2 1 2 1 1 1 1 1 2 2 2
5 2 3 5 3 3 4 0 4 5 5 5 4 4 4 4 4 3 2 1 1 2 2 2 1 2 2 1 1 1 0 1 1 1 1 2 2 2 2 2 2 1 1 1 1 1 1 2 2
2 1 2 4 3 4 4 2 3 4 5 5 5 5 4 4 3 4 3 2 1 2 2 2 1 1 1 1 0 0 0 0 1 1 1 1 1 1 1 1 2 1 1 1 1 2 2 2 2
2 1 2 3 1 3 3 3 3 4 5 5 4 4 4 3 4 5 5 3 4 3 3 2 2 1 1 1 1 1 1 1 1 1 2 2 2 2 1 1 1 1 1 1 1 1 2 1 1
2 1 1 3 2 3 4 3 2 4 3 2 2 3 3 4 5 5 5 4 3 3 2 1 1 1 1 1 1 1 1 1 1 2 2 2 2 1 2 2 1 1 1 1 1 0 1 1 0
1 2 2 2 2 3 3 3 3 3 4 4 4 2 2 2 3 4 4 4 3 2 1 1 1 1 0 1 1 0 1 1 1 2 2 2 2 2 2 2 2 1 1 1 1 1 1 1 1
2 3 2 1 2 1 1 0 2 2 4 4 4 3 3 2 2 3 3 4 3 2 1 1 1 1 1 0 1 1 1 1 2 2 2 2 2 2 2 1 2 1 1 2 2 1 1 1 1
2 2 1 1 2 2 3 2 4 2 3 4 4 3 3 2 2 3 3 3 3 3 2 1 1 1 1 1 1 1 1 1 1 1 3 3 2 2 2 1 1 1 1 2 2 1 1 2 2
1 4 4 5 5 2 2 1 3 2 2 4 4 3 2 2 2 3 3 3 4 4 3 2 2 1 1 1 1 1 1 1 1 1 3 3 2 2 2 1 1 2 2 2 2 2 2 2 2
6 6 5 6 5 3 1 1 4 3 1 2 3 2 1 1 1 2 3 4 4 5 4 3 2 2 2 2 2 2 2 2 2 2 3 3 2 2 3 2 2 2 2 2 2 2 2 2 2
2 5 4 2 3 4 3 1 4 2 2 2 2 1 1 1 2 2 2 3 3 4 4 3 3 3 2 2 3 3 2 1 2 2 3 3 3 3 3 2 2 2 2 2 1 1 2 2 2
2 2 2 5 0 2 3 3 4 3 5 4 4 3 3 2 2 3 3 3 3 3 3 3 3 3 3 3 2 2 3 2 2 3 3 3 3 2 2 2 2 2 2 1 1 1 1 1 2
3 4 4 4 1 2 4 3 4 5 7 7 6 4 4 3 3 3 3 3 3 3 3 3 3 4 4 2 2 2 3 3 3 2 3 3 3 2 2 2 2 2 1 1 1 1 1 1 2
4 4 4 3 3 3 3 5 3 3 3 4 4 3 2 3 4 4 4 3 3 3 3 3 3 3 3 3 2 2 3 3 2 2 2 2 2 2 2 2 1 2 2 2 1 2 2 2 2
2 2 3 2 1 2 2 6 3 2 3 2 4 4 3 3 3 3 3 3 3 3 3 3 3 3 3 3 2 2 2 3 3 3 3 2 2 2 2 1 1 2 2 2 2 3 2 2 3
Wind_Direction
151 118 103 72 57 47 305 282 278 315 319 331 56 113 127 134 167 208 86 136 134 143 152 158 158 155 151 147 144 141 139 139 139 139 139 141 143 146 150 153 155 158 159 160 162 163 163 163 164
136 129 68 61 81 49 288 264 276 285 278 325 41 71 83 63 68 110 127 139 138 143 148 156 159 157 155 152 148 146 145 145 144 145 146 148 149 152 155 158 161 164 166 168 170 172 172 173 175
140 102 87 75 102 181 255 266 252 301 311 326 51 51 83 139 139 157 156 139 135 141 147 161 160 160 158 156 153 151 151 151 152 154 155 158 160 163 166 167 169 173 176 179 180 182 184 186 188
107 57 57 72 243 235 234 272 282 310 335 0 100 73 64 22 155 148 136 138 137 141 148 162 161 163 161 160 159 159 159 159 160 162 163 166 170 173 177 178 181 185 187 189 191 193 197 199 202
64 80 64 30 276 269 264 273 271 286 304 334 106 119 26 16 88 114 130 139 142 144 149 162 161 164 165 165 164 164 164 165 167 171 172 175 179 182 185 189 194 198 201 202 203 203 207 212 216
61 71 85 291 285 282 281 275 283 257 223 268 126 124 22 76 110 124 128 133 139 144 147 157 164 166 168 168 166 165 165 166 168 173 176 181 188 192 194 200 205 208 213 216 218 217 217 224 229
106 102 144 200 274 293 276 284 262 243 244 230 155 133 75 111 121 121 118 119 125 134 138 146 158 167 172 171 167 164 163 164 169 173 176 184 195 203 208 211 216 220 224 228 231 230 230 234 239
124 104 115 224 233 270 293 318 285 227 262 345 125 150 201 167 124 108 101 104 118 129 137 142 144 148 155 167 172 170 167 168 169 176 183 191 200 207 217 222 231 234 237 238 240 241 245 247 251
92 77 212 224 208 250 277 312 308 336 69 47 64 124 137 125 121 113 109 114 130 144 145 145 145 146 147 156 173 175 177 175 176 182 188 191 192 198 219 234 242 247 246 244 247 249 255 261 264
95 138 230 222 204 225 274 265 276 9 22 30 49 69 108 122 132 138 146 157 166 174 174 165 162 161 158 168 168 166 174 173 178 181 192 178 172 197 212 252 253 258 255 255 255 253 254 258 262
157 202 235 250 221 215 246 269 284 136 289 234 184 147 133 135 144 156 165 172 182 180 174 174 170 166 167 168 159 162 165 162 179 186 178 167 173 221 236 254 268 272 272 266 272 269 257 245 239
182 248 230 252 224 198 216 251 1 137 234 232 153 144 141 151 164 173 178 183 177 173 180 175 175 173 175 170 175 177 177 181 193 207 197 183 196 227 237 242 262 264 267 286 293 275 265 253 245
212 263 264 253 272 186 137 182 164 288 285 66 110 128 149 164 173 173 167 171 176 179 186 185 180 181 180 173 179 175 194 203 205 200 204 198 204 224 233 243 252 263 266 259 264 260 264 262 266
228 253 291 300 313 11 120 350 84 301 22 95 107 131 152 157 158 152 154 176 192 200 194 180 173 178 170 179 194 193 196 208 198 206 207 206 209 215 223 240 248 262 263 261 255 259 260 259 261
311 338 339 351 19 317 88 16 359 315 71 95 102 107 111 108 105 136 172 182 200 206 194 179 170 167 175 187 192 194 199 195 215 230 226 218 216 217 215 232 257 262 258 256 256 267 267 263 268
27 34 353 321 10 19 95 326 341 8 82 80 80 86 86 72 77 77 73 142 178 174 158 166 161 155 173 187 189 191 183 195 231 233 229 232 229 219 208 223 244 250 242 236 245 255 268 273 278
28 20 317 315 354 43 83 26 346 15 73 72 63 72 77 61 36 28 45 62 151 153 121 114 125 137 153 159 176 152 146 196 240 248 238 239 235 229 215 226 234 221 214 245 263 260 251 266 277
261 290 300 299 329 63 77 58 8 24 72 76 63 56 58 53 26 13 16 29 88 104 103 114 116 122 131 108 107 116 95 283 281 269 256 247 237 229 221 249 248 215 209 251 261 264 260 251 269
183 182 269 279 311 84 92 73 15 28 54 58 56 48 43 33 22 24 28 45 64 64 73 101 119 115 113 143 195 212 242 262 268 258 258 253 242 234 218 234 251 235 228 246 253 257 283 279 292
135 109 300 314 14 104 102 68 35 36 51 60 63 50 30 22 23 16 17 34 52 64 61 70 115 140 143 186 207 207 208 234 246 265 278 270 255 243 226 212 218 219 238 270 260 239 245 274 297
73 178 249 252 15 58 98 26 25 13 24 32 31 25 8 30 14 7 9 9 23 36 41 354 348 19 144 169 137 33 40 356 335 308 294 286 270 248 240 222 214 219 204 235 244 227 206 243 259
298 279 245 188 98 325 81 204 325 343 355 358 352 345 341 358 9 6 8 2 357 342 353 358 5 0 340 117 162 183 200 252 271 292 287 292 276 257 245 220 205 206 214 244 249 221 207 199 250
253 334 51 83 113 58 24 106 300 351 337 319 318 320 328 348 9 6 0 349 347 350 2 3 12 12 348 331 230 202 248 264 284 320 315 301 287 276 267 238 212 213 225 240 250 239 215 200 217
32 39 44 47 66 45 327 126 293 286 281 302 311 320 331 354 15 1 358 358 351 352 356 352 347 321 339 340 325 281 260 273 305 323 305 304 296 286 282 259 229 230 236 238 240 232 224 223 222
41 59 26 8 13 283 316 103 252 266 279 295 306 312 325 339 356 347 344 350 342 337 331 335 334 331 340 339 332 319 282 243 241 261 267 282 294 284 273 267 253 248 246 246 241 234 240 231 234
26 108 135 206 247 289 340 267 261 298 333 356 13 17 6 314 321 320 317 318 316 319 315 314 318 313 306 304 306 305 292 270 260 250 245 255 259 264 269 271 266 265 258 262 255 251 253 241 243
71 68 152 134 119 316 304 303 304 353 3 9 17 22 355 320 313 310 310 301 289 296 301 288 285 290 287 285 293 300 299 283 272 273 266 264 265 271 272 271 277 281 274 260 235 245 264 265 254
76 124 73 83 85 309 306 299 289 319 333 347 350 347 333 334 325 321 313 295 287 282 292 295 286 277 282 286 278 299 302 293 277 277 280 281 281 283 286 285 285 302 305 292 264 257 263 263 273
18 45 70 90 140 162 286 282 255 262 298 311 307 309 308 310 305 302 301 300 295 301 305 305 311 305 303 295 283 290 294 294 294 288 283 283 285 290 285 273 273 284 286 279 270 276 274 271 283
87 98 115 111 274 174 204 272 309 307 319 317 313 315 310 300 302 298 302 310 311 308 311 309 310 307 299 294 288 287 297 313 315 309 307 308 308 304 295 278 279 286 282 275 268 277 278 273 285